Flag Weather past 2 weeks in Flekkefjord, Norway

Now
40 °F

Quite cool.


Feels Like: 33 °F
Forecast: 43 / 47 °F
Wind: 12 mph from East

Location: Lista Fyr

Current Time: Nov 27, 2014 at 6:26:43 PM

Latest Report: Nov 27, 2014 at 5:00 PM


Visibility: N/A

Pressure: 30.01 "Hg

Humidity: 83%

Dew point: 35 °F

Location of FlekkefjordLocation

Historic Weather in Flekkefjord — Graph

°F

Flekkefjord temperature yesterday

Maximum temperature yesterday: 44 °F (at 1:00 PM)
Minimum temperature yesterday: 37 °F (at 6:00 AM)
Average temperature yesterday: 41 °F

Past Weeks' High & Low Weather Summary

 TemperatureHumidityPressure
High50 °F (Nov 25, 12:00 PM)95% (Nov 23, 5:00 PM)30.47 "Hg (Nov 23, 5:00 PM)
Low34 °F (Nov 21, 2:00 AM)60% (Nov 19, 7:00 AM)29.76 "Hg (Nov 23, 8:00 PM)
Average44 °F78%30.09 "Hg
* Reported Nov 12 5:00 PM — Nov 27 5:00 PM, Flekkefjord, Weather by CustomWeather, © 2014

Note: Actual official high and low records may vary slightly from our data, if they occured in-between our weather recording intervals... More about our weather records

Advertising

Flekkefjord weather history for previous 24 hours

 ConditionsComfort  
Time TempWeatherWind HumidityBarometerVisibility
5:00 PM
Nov 27
40 °FQuite cool.12 mph83%30.01 "HgN/A
4:00 PM40 °FChilly.13 mph82%30.00 "HgN/A
3:00 PM40 °FQuite cool.12 mph81%30.00 "HgN/A
2:00 PM40 °FQuite cool.13 mph82%30.01 "HgN/A
1:00 PM41 °FSprinkles. Overcast.13 mph81%30.02 "Hg9 mi
12:00 PM42 °FQuite cool.13 mph77%30.02 "HgN/A
11:00 AM42 °FQuite cool.10 mph77%30.02 "HgN/A
10:00 AM41 °FPassing clouds.12 mph81%30.02 "Hg25 mi
9:00 AM40 °FChilly.12 mph83%30.02 "HgN/A
8:00 AM40 °FQuite cool.13 mph83%30.01 "HgN/A
7:00 AM40 °FPassing clouds.12 mph85%30.01 "Hg19 mi
6:00 AM40 °FQuite cool.12 mph84%30.02 "HgN/A
5:00 AM41 °FQuite cool.12 mph84%30.04 "HgN/A
4:00 AM41 °FQuite cool.10 mph83%30.05 "HgN/A
3:00 AM41 °FQuite cool.13 mph82%30.06 "HgN/A
2:00 AM42 °FQuite cool.12 mph82%30.07 "HgN/A
1:00 AM42 °FQuite cool.12 mph81%30.07 "HgN/A
12:00 AM42 °FQuite cool.12 mph81%30.09 "HgN/A
11:00 PM
Nov 26
42 °FQuite cool.12 mph80%30.09 "HgN/A
10:00 PM42 °FQuite cool.13 mph78%30.11 "HgN/A
9:00 PM42 °FQuite cool.12 mph77%30.12 "HgN/A
8:00 PM42 °FQuite cool.10 mph76%30.12 "HgN/A
7:00 PM42 °FOvercast.9 mph75%30.13 "Hg19 mi
6:00 PM43 °FQuite cool.8 mph74%30.14 "HgN/A
Weather by CustomWeather, © 2014

See weather overviewHow to use our weather pages